Weather History for Carmi, IL

Change the Weather History Date:

Saturday, March 22, 2014

  Actual Average (KEVV) Record (KEVV)
Temperature  
Mean Temperature 48 °F 48 °F  
Max Temperature 56 °F 59 °F 80 °F (1988)
Min Temperature 40 °F 37 °F 18 °F (1996)
Degree Days  
Heating Degree Days 17 17  
Month to date heating degree days 451  
Since 1 July heating degree days 4025  
Cooling Degree Days 0 0  
Month to date cooling degree days 0  
Year to date cooling degree days 0  
Moisture  
Dew Point 35 °F    
Average Humidity 62    
Maximum Humidity 81    
Minimum Humidity 45    
Precipitation  
Precipitation 0.00 in 0.15 in 1.60 in (1991)
Month to date precipitation 2.91  
Year to date precipitation 9.18  
Snow  
Snow 0.00 in 0.10 in 4.80 in (1968)
Month to date snowfall 0.9  
Since 1 July snowfall 11.6  
Snow Depth -    
Sea Level Pressure  
Sea Level Pressure 30.13 in    
Wind  
Wind Speed 12 mph (NNW)    
Max Wind Speed 20 mph    
Max Gust Speed 26 mph    
Visibility 10 miles    
Events      
T = Trace of Precipitation, MM = Missing Value Source: NWS Daily Summary

Daily Weather History Graph

Daily Weather History Graph

Search for Another Location

Airport:

Trip Planner

Search our weather history database for the weather conditions in past years. The results will help you decide how hot, cold, wet, or windy it might be!

Date:

Astronomy

Mar. 22, 2014 Rise Set
Actual Time 6:52 AM CDT 7:06 PM CDT
Civil Twilight 6:26 AM CDT 7:32 PM CDT
Nautical Twilight 5:55 AM CDT 8:03 PM CDT
Astronomical Twilight 5:24 AM CDT 8:34 PM CDT
Moon 12:20 AM CDT (3/22) 10:40 AM CDT (3/22)
Length of Visible Light 13h 06m
Length of Day
12h 13m
Waning Gibbous, 65% of the Moon is Illuminated
Mar 22
Waning Gibbous
Mar 23
Last Quarter
Mar 30
New
Apr 7
First Quarter
Apr 15
Full

Hourly Weather History & Observations

Time (CDT) Temp. Windchill Dew Point Humidity Pressure Visibility Wind Dir Wind Speed Gust Speed Precip Events Conditions
12:15 AM 53.6 °F - 41.5 °F 64% 29.92 in 10.0 mi NW 8.1 mph - N/A   Clear
12:35 AM 56.1 °F - 42.1 °F 59% 29.94 in 10.0 mi NW 12.7 mph 18.4 mph N/A   Clear
12:55 AM 55.4 °F - 39.4 °F 55% 29.94 in 10.0 mi NNW 10.4 mph 18.4 mph N/A   Clear
1:15 AM 53.8 °F - 37.9 °F 55% 29.95 in 10.0 mi NNW 9.2 mph - N/A   Clear
1:35 AM 53.1 °F - 37.9 °F 57% 29.96 in 10.0 mi NNW 9.2 mph - N/A   Clear
1:55 AM 50.7 °F - 38.3 °F 62% 29.97 in 10.0 mi NW 8.1 mph - N/A   Clear
2:15 AM 50.5 °F - 37.9 °F 62% 29.97 in 10.0 mi NW 8.1 mph - N/A   Clear
2:35 AM 48.2 °F - 37.6 °F 67% 29.97 in 10.0 mi NW 6.9 mph - N/A   Clear
2:55 AM 51.1 °F - 38.1 °F 61% 29.98 in 10.0 mi NNW 10.4 mph - N/A   Clear
3:15 AM 50.0 °F - 38.3 °F 64% 29.99 in 10.0 mi NW 6.9 mph - N/A   Scattered Clouds
3:35 AM 50.0 °F - 38.8 °F 66% 29.99 in 10.0 mi NW 6.9 mph - N/A   Mostly Cloudy
3:55 AM 48.7 °F - 39.2 °F 70% 30.00 in 10.0 mi WNW 6.9 mph - N/A   Scattered Clouds
4:15 AM 48.2 °F - 39.2 °F 71% 30.00 in 10.0 mi NW 9.2 mph - N/A   Clear
4:35 AM 47.7 °F - 39.4 °F 73% 30.02 in 10.0 mi NW 8.1 mph - N/A   Scattered Clouds
4:55 AM 46.9 °F - 39.2 °F 74% 30.02 in 10.0 mi NW 15.0 mph - N/A   Scattered Clouds
5:15 AM 47.5 °F - 39.0 °F 72% 30.04 in 10.0 mi NNW 15.0 mph - N/A   Clear
5:35 AM 46.2 °F 39.5 °F 38.8 °F 75% 30.05 in 10.0 mi NNW 16.1 mph - N/A   Clear
5:55 AM 44.4 °F 36.6 °F 39.0 °F 81% 30.06 in 10.0 mi North 18.4 mph 23.0 mph N/A   Mostly Cloudy
6:15 AM 43.2 °F 35.6 °F 37.4 °F 80% 30.09 in 10.0 mi North 16.1 mph 26.5 mph N/A   Overcast
6:35 AM 41.4 °F 33.3 °F 35.8 °F 81% 30.10 in 10.0 mi North 16.1 mph 20.7 mph N/A   Mostly Cloudy
6:55 AM 40.5 °F 32.5 °F 34.7 °F 80% 30.12 in 10.0 mi NNW 15.0 mph 18.4 mph N/A   Scattered Clouds
7:15 AM 40.5 °F 32.5 °F 34.3 °F 79% 30.13 in 10.0 mi North 15.0 mph - N/A   Scattered Clouds
7:35 AM 40.6 °F 34.8 °F 34.7 °F 79% 30.14 in 10.0 mi NNW 9.2 mph - N/A   Scattered Clouds
7:55 AM 40.5 °F 32.1 °F 33.8 °F 77% 30.14 in 10.0 mi NNW 16.1 mph 19.6 mph N/A   Mostly Cloudy
8:15 AM 40.1 °F 31.3 °F 32.7 °F 75% 30.14 in 10.0 mi NNW 17.3 mph 26.5 mph N/A   Scattered Clouds
8:35 AM 40.1 °F 32.0 °F 32.9 °F 75% 30.15 in 10.0 mi NNW 15.0 mph 21.9 mph N/A   Clear
8:55 AM 41.0 °F 32.8 °F 32.7 °F 72% 30.16 in 10.0 mi NNW 16.1 mph 23.0 mph N/A   Clear
9:15 AM 41.9 °F 34.3 °F 32.9 °F 70% 30.17 in 10.0 mi North 15.0 mph 20.7 mph N/A   Clear
9:35 AM 43.7 °F 35.7 °F 33.1 °F 66% 30.17 in 10.0 mi North 18.4 mph 23.0 mph N/A   Clear
9:55 AM 43.9 °F 35.7 °F 32.9 °F 65% 30.17 in 10.0 mi NNW 19.6 mph 23.0 mph N/A   Clear
10:15 AM 45.1 °F 38.4 °F 33.6 °F 64% 30.18 in 10.0 mi North 15.0 mph - N/A   Clear
10:35 AM 45.3 °F 39.7 °F 33.1 °F 62% 30.19 in 10.0 mi North 11.5 mph 17.3 mph N/A   Scattered Clouds
10:55 AM 46.4 °F 41.9 °F 32.7 °F 59% 30.20 in 10.0 mi North 9.2 mph 18.4 mph N/A   Scattered Clouds
11:15 AM 46.6 °F - 33.1 °F 59% 30.20 in 10.0 mi NNW 15.0 mph - N/A   Scattered Clouds
11:35 AM 47.7 °F - 32.9 °F 57% 30.21 in 10.0 mi North 9.2 mph 16.1 mph N/A   Scattered Clouds
11:59 AM 48.2 °F - 33.8 °F 58% 30.20 in 10.0 mi NNW 13.8 mph 18.4 mph N/A   Scattered Clouds
12:19 PM 48.2 °F - 33.8 °F 58% 30.20 in 10.0 mi North 10.4 mph 18.4 mph N/A   Clear
12:39 PM 50.0 °F - 33.8 °F 54% 30.19 in 10.0 mi North 12.7 mph 17.3 mph N/A   Clear
12:55 PM 49.8 °F - 33.6 °F 54% 30.18 in 10.0 mi North 10.4 mph 17.3 mph N/A   Clear
12:59 PM 50.0 °F - 33.8 °F 54% 30.18 in 10.0 mi NNW 10.4 mph 17.3 mph N/A   Clear
1:15 PM 50.9 °F - 33.4 °F 51% 30.18 in 10.0 mi NNW 9.2 mph - N/A   Clear
1:35 PM 51.6 °F - 33.4 °F 50% 30.17 in 10.0 mi North 10.4 mph 18.4 mph N/A   Clear
1:55 PM 52.2 °F - 33.8 °F 50% 30.17 in 10.0 mi North 13.8 mph 19.6 mph N/A   Clear
2:15 PM 52.7 °F - 33.6 °F 48% 30.16 in 10.0 mi North 13.8 mph 19.6 mph N/A   Clear
2:35 PM 53.1 °F - 33.6 °F 48% 30.15 in 10.0 mi North 13.8 mph - N/A   Clear
2:55 PM 53.2 °F - 33.3 °F 47% 30.15 in 10.0 mi NNW 11.5 mph 18.4 mph N/A   Clear
3:15 PM 53.8 °F - 33.3 °F 46% 30.15 in 10.0 mi North 9.2 mph 13.8 mph N/A   Clear
3:35 PM 53.8 °F - 33.8 °F 47% 30.14 in 10.0 mi North 13.8 mph 18.4 mph N/A   Clear
3:55 PM 53.8 °F - 32.9 °F 45% 30.14 in 10.0 mi NNW 13.8 mph - N/A   Clear
4:15 PM 54.0 °F - 33.6 °F 46% 30.14 in 10.0 mi North 11.5 mph - N/A   Clear
4:35 PM 54.1 °F - 33.4 °F 46% 30.14 in 10.0 mi North 13.8 mph - N/A   Clear
4:55 PM 53.8 °F - 34.0 °F 47% 30.14 in 10.0 mi NNW 10.4 mph 17.3 mph N/A   Clear
5:15 PM 53.6 °F - 34.0 °F 47% 30.14 in 10.0 mi North 15.0 mph - N/A   Clear
5:35 PM 53.2 °F - 34.2 °F 48% 30.15 in 10.0 mi North 12.7 mph 17.3 mph N/A   Clear
5:55 PM 52.7 °F - 33.8 °F 49% 30.16 in 10.0 mi North 11.5 mph - N/A   Clear
6:15 PM 52.0 °F - 33.1 °F 49% 30.15 in 10.0 mi North 13.8 mph - N/A   Clear
6:35 PM 51.3 °F - 33.8 °F 51% 30.16 in 10.0 mi North 9.2 mph - N/A   Clear
6:55 PM 50.0 °F - 34.2 °F 55% 30.16 in 10.0 mi North 10.4 mph - N/A   Clear
7:15 PM 48.4 °F - 34.0 °F 58% 30.17 in 10.0 mi North 10.4 mph - N/A   Clear
7:35 PM 47.3 °F - 34.2 °F 60% 30.18 in 10.0 mi North 9.2 mph - N/A   Clear
7:55 PM 46.4 °F 42.4 °F 34.5 °F 63% 30.18 in 10.0 mi North 8.1 mph - N/A   Clear
8:15 PM 45.9 °F 41.7 °F 34.3 °F 64% 30.19 in 10.0 mi North 8.1 mph - N/A   Clear
8:40 PM 46.0 °F 39.6 °F 34.2 °F 63% 30.20 in 10.0 mi NNW 15.0 mph - N/A   Clear
8:55 PM 45.7 °F 39.1 °F 34.5 °F 65% 30.20 in 10.0 mi NNW 15.0 mph 18.4 mph N/A   Clear
9:15 PM 45.3 °F 39.7 °F 34.3 °F 65% 30.20 in 10.0 mi North 11.5 mph - N/A   Clear
9:35 PM 44.4 °F 37.5 °F 34.3 °F 68% 30.20 in 10.0 mi North 15.0 mph - N/A   Clear
9:55 PM 43.7 °F 36.3 °F 34.2 °F 69% 30.21 in 10.0 mi NNW 16.1 mph - N/A   Clear
10:15 PM 43.0 °F 36.4 °F 33.8 °F 70% 30.22 in 10.0 mi NNW 12.7 mph 23.0 mph N/A   Clear
10:35 PM 42.6 °F 34.9 °F 33.3 °F 69% 30.22 in 10.0 mi North 16.1 mph - N/A   Clear
10:55 PM 41.9 °F 34.6 °F 33.1 °F 71% 30.23 in 10.0 mi North 13.8 mph - N/A   Clear
11:15 PM 41.4 °F 34.0 °F 33.1 °F 72% 30.23 in 10.0 mi North 13.8 mph 18.4 mph N/A   Clear
11:35 PM 41.4 °F 33.6 °F 32.9 °F 72% 30.24 in 10.0 mi North 15.0 mph - N/A   Clear
11:55 PM 40.6 °F 34.3 °F 32.9 °F 74% 30.23 in 10.0 mi North 10.4 mph - N/A   Clear